Weather in Steklyannoye

Russia / Novosibirsk Oblast     54°21′21″N   77°08′41″E
temp.,
°C
wind,
m/s
gust,
m/s
humid.,
%
clouds,
%
prec.,
mm/h
press.,
hPa
HPBL,
m
2 march, tue
tue201:00−15nnw239692 0.1 101328
04:00−17nw239792 0.0 101423
07:00−19wnw239985 0.1 101520
10:00−19wnw239758 0.0 101626
13:00−16w229259 0.0 1017213
16:00−14wsw239397 0.0 1016308
19:00−16wsw229698 0.0 101720
22:00−16sw129696 0.0 101720
3 march, wed
wed301:00−16sw239685 0.1 101726
04:00−17sw339778 0.1 101730
07:00−17sw349779 0.1 101876
10:00−18ssw359780 0.1 1018128
13:00−14ssw589488 0.1 1018338
16:00−12ssw6109199 0.0 1018432
19:00−14ssw6139197 0.0 1018426
22:00−12ssw7139199 0.0 1017487
4 march, thu
thu401:00−10ssw7139399 0.3 1017525
04:00−9ssw81494100 0.6 1015466
07:00−8ssw81492100 0.9 1015473
10:00−6ssw81593100 0.2 1013599
13:00−3ssw91494100 0.6 1013717
16:00−2ssw91494100 0.5 1012830
19:00−1ssw91588100 0.8 1012904
22:00−3ssw91692100 0.2 1010748
5 march, fri
fri501:00−3ssw81492100 0.6 1010624
04:00−4ssw81395100 0.4 1008535
07:00−3ssw71295100 1.1 1008493
10:00−3w61095100 0.4 1009543
13:00−6w7128977 0.4 1013453
16:00−7wsw712870 0.0 1016512
19:00−8sw8178610 0.0 1017546
22:00−7sw111985100 0.0 1017786
6 march, sat
sat601:00−5sw101789100 0.1 1016913
04:00−4sw101690100 0.2 1016884
07:00−5sw91694100 0.6 1016801
10:00−5sw81592100 0.8 1016714
13:00−5sw81391100 0.8 1016704
16:00−5sw81293100 0.3 1017681
19:00−4sw71190100 0.4 1018643
22:00−5sw51092100 0.1 1018495